Miscellaneous Local Product
Issued by NWS Hastings, NE

Home | Current Version | Previous Version | Graphics & Text | Print | Product List | Glossary On
Versions: 1 2 3 4 5 6 7 8 9 10 11 12 13 14 15 16 17 18 19 20 21 22 23 24 25 26 27 28 29 30 31 32 33 34 35 36 37 38 39 40 41 42 43 44 45 46 47 48 49 50
000
AXUS43 KGID 141002
MISGRI

GID CWA HOURLY WEATHER ROUNDUP
NATIONAL WEATHER SERVICE HASTINGS NE
400 AM CST THU DEC 14 2017

NOTE: "FAIR" INDICATES FEW OR NO CLOUDS BELOW 12,000 FEET WITH NO
SIGNIFICANT WEATHER AND/OR OBSTRUCTIONS TO VISIBILITY.

...SOUTH CENTRAL NEBRASKA...

CITY           SKY/WX    TMP DP  RH WIND       PRES   REMARKS
GRAND ISLAND   PTCLDY    32  26  78 W9        30.06F WCI  24
KEARNEY        CLOUDY    32  26  78 W7        30.08S WCI  26
HASTINGS       PTCLDY    31  24  75 NW10      30.07R WCI  22
ORD            PTCLDY    31  25  78 W5        30.04F WCI  26
YORK           CLOUDY    34  28  80 CALM      30.05S
AURORA         CLOUDY    32  26  78 NW7       30.05S WCI  26
LEXINGTON      CLOUDY    32  22  68 NW6       30.08F WCI  26
HOLDREGE       PTCLDY    29  24  82 W3        30.08F
HEBRON         CLOUDY    35  27  74 NW5       30.08R WCI  31

...NEBRASKA PANHANDLE...

CITY           SKY/WX    TMP DP  RH WIND       PRES   REMARKS
CHADRON        CLOUDY    37  22  54 NW15      30.11F WCI  28
ALLIANCE       PTCLDY    33  26  75 NW14      30.09R WCI  23
SCOTTSBLUFF    CLOUDY    36  21  54 W10       30.14S WCI  28
SIDNEY         CLOUDY    35  22  58 NW21      30.12S WCI  24

...WESTERN AND NORTH CENTRAL NEBRASKA...

CITY           SKY/WX    TMP DP  RH WIND       PRES   REMARKS
VALENTINE      CLOUDY    36  30  79 W13       30.04F WCI  27
AINSWORTH      CLOUDY    34  26  73 W8        30.03F WCI  27
ONEILL         CLOUDY    31  27  83 W8        30.03R WCI  24
BROKEN BOW     CLOUDY    29  22  75 CALM      30.05F
IMPERIAL       CLOUDY    36  23  59 NW9       30.13R WCI  29
NORTH PLATTE   CLOUDY    37  25  61 NW8       30.09S WCI  31
MCCOOK         CLOUDY    37  23  56 NW10      30.11S WCI  30

...EASTERN NEBRASKA...

CITY           SKY/WX    TMP DP  RH WIND       PRES   REMARKS
NORFOLK        CLOUDY    34  25  69 W5        30.01S WCI  30
SO SIOUX CITY  CLOUDY    32  27  81 CALM      30.01F
TEKAMAH        CLOUDY    33  26  75 CALM      30.03R
COLUMBUS       CLOUDY    35  25  66 W7        30.05S WCI  29
ALBION         CLOUDY    35  26  71 NW7       30.03F WCI  29
OMAHA EPPLEY   CLOUDY    35  25  66 NW8       30.02S WCI  29
OFFUTT AFB     CLOUDY    36  25  64 N7        30.02S WCI  30
MILLARD        CLOUDY    36  30  78 N3        30.03S
LINCOLN        CLOUDY    37  22  54 N13       30.05S WCI  29
NEBRASKA CITY  CLOUDY    36  27  69 N6        30.02R WCI  31
BEATRICE       CLOUDY    35  28  74 W6        30.04S WCI  30
FALLS CITY     CLOUDY    36  25  64 N3        30.03R

...NORTHERN KANSAS...

CITY           SKY/WX    TMP DP  RH WIND       PRES   REMARKS
GOODLAND       CLOUDY    36  23  59 N10G23    30.12S WCI  28
HILL CITY      NOT AVBL
NORTON         CLOUDY    36  18  48 W8        30.08S WCI  29
PHILLIPSBURG   CLEAR     32  23  69 NW3       30.11F
SMITH CENTER   MOCLDY    25  21  86 NW5       30.11S WCI  19
HAYS           CLOUDY    38  22  52 N12       30.09S WCI  30
RUSSELL        PTCLDY    33  25  72 N7        30.08R WCI  27
CONCORDIA      CLEAR     29  24  82 NW8       30.07R WCI  21
SALINA         MOCLDY    32  26  78 NW9       30.09R WCI  24
TOPEKA         CLOUDY    36  28  73 NW8       30.03S WCI  30



USA.gov is the U.S. government's official web portal to all federal, state and local government web resources and services.